Forside
METAR-TAF:

METAR-TAF

Lufthavne :

Macomb Municipal Airport

Macomb, Illinois, USA

Breddekreds: 40-31-13N, længdekreds: 090-39-09W, højde: 216 m

Aktuelle vejr

Denne rapport blev lavet for 23 minutter siden, kl. 21:35 UTC
Vind 5 kt fra vest
Temperatur 5°C
Fugtighed 75%
Tryk 1019 hPa
Sigt: 16.1 km
Spredte skyer i en højde af 2000 ft

METAR: KMQB 162135Z AUTO 28005KT 10SM SCT020 05/01 A3009 RMK AO2 T00520008

Tid: 15:58 (21:58 UTC)


TAF: fraværende

Vejrobservationer og prognoser fra mere end 4000 lufthavne (METAR og TAF).

De gule og røde prikker repræsenterer de meteorologiske stationer.

Flyt musen over at se navnet på stationen.

Så klik over at se vejr observationer og prognoser.

At skifte det kort: Klik på de grønne knapper med et sort kors for at zoome ind; på den grønne knap med en bindestreg for at zoome ud; eller på de grønne pile for tilstødende kort.


METAR-TAF: